CAPE
3 9 13 17 13 10 14 9 9 27 14 2 10 16 12 6 2 0 0 0 5 42 29 1 0 2 9 15 11 21 44 1 7 3 0 0 0 0 0 6 190 480 601 1164 912
4 8 8 15 17 11 7 17 9 22 5 3 12 10 7 0 0 0 0 14 44 68 19 2 0 2 16 58 32 15 13 0 0 4 0 0 0 0 2 130 359 709 1276 1310 1129
3 7 8 18 15 15 6 16 14 6 9 10 4 3 0 0 0 0 2 25 30 50 9 0 2 0 9 51 27 5 0 0 3 0 0 0 0 8 77 84 275 448 1042 1329 1322
2 2 12 12 10 13 10 14 16 4 1 2 1 0 0 0 0 0 0 0 0 1 0 1 12 8 6 1 1 14 12 0 9 36 36 2 0 3 9 1 311 862 1199 1386 1167
8 1 10 13 14 13 9 13 13 4 4 5 0 0 0 0 0 0 0 0 0 0 0 4 0 14 4 1 5 17 0 7 20 9 7 0 3 0 0 0 15 694 1031 994 1123
8 8 12 8 12 10 9 14 8 1 0 3 2 0 0 0 0 0 0 0 0 0 0 31 17 19 6 0 2 17 18 15 3 22 20 1 2 0 0 0 21 296 449 813 991
2 5 9 11 5 13 8 8 6 0 1 0 4 0 0 0 0 0 0 0 0 0 0 3 27 25 0 1 1 0 21 33 12 14 12 0 0 0 0 0 0 0 65 598 847
5 7 8 8 8 5 11 4 0 0 0 4 0 0 0 0 0 0 0 1 4 4 0 49 0 15 1 1 9 3 9 8 23 37 25 4 1 0 0 0 0 0 0 10 699
5 6 9 5 5 7 2 0 0 0 0 1 0 0 0 0 0 0 0 0 0 11 25 76 10 8 2 0 6 10 5 8 10 36 2 0 2 0 0 0 0 0 0 0 128
7 8 7 9 3 9 0 0 0 0 0 0 0 0 0 0 0 0 0 0 0 0 9 6 2 2 1 0 0 0 0 2 9 3 43 2 0 14 0 0 0 0 0 0 0
7 5 4 5 4 3 0 0 0 0 0 0 0 0 0 0 0 1 0 0 0 3 0 0 0 0 5 3 0 0 3 0 13 3 21 1 0 25 0 0 0 0 0 0 0
5 4 6 4 6 0 0 0 0 0 0 0 0 0 0 0 0 0 0 1 4 1 0 0 0 0 0 1 0 1 0 2 0 0 9 15 25 17 43 1 0 0 0 0 0
5 3 3 3 0 0 0 0 0 0 0 0 0 0 0 0 0 0 11 7 0 0 0 0 0 0 0 3 0 0 0 0 0 0 0 7 9 4 0 8 8 0 0 0 0
2 5 3 3 0 0 0 0 0 0 0 0 0 0 0 0 0 0 5 1 0 0 0 0 0 0 0 1 0 0 0 0 0 0 1 1 0 0 0 0 0 0 2 0 0
1 3 1 0 0 0 0 0 0 0 0 0 0 0 0 0 0 1 0 0 0 0 0 0 0 0 2 2 0 0 2 0 0 0 1 5 0 0 0 0 0 0 0 0 0
0 1 0 0 0 0 0 0 0 0 0 0 0 0 0 0 0 0 0 0 0 0 0 0 0 0 3 5 2 3 4 13 0 0 0 0 0 0 0 0 0 0 0 0 0
0 0 0 0 0 0 0 0 0 0 0 0 0 0 0 0 0 0 0 0 0 0 0 0 0 10 7 1 0 0 2 6 7 6 0 0 0 0 0 0 0 0 0 0 0
0 0 0 0 0 0 0 0 0 0 0 0 0 0 0 0 1 0 0 0 0 0 0 0 8 7 0 0 0 0 0 0 0 0 0 0 0 0 0 0 0 0 0 0 0
0 0 0 0 0 0 0 0 0 0 0 0 0 0 1 0 0 0 0 0 0 0 0 0 0 4 0 0 0 0 0 1 0 0 0 0 0 0 0 0 0 0 0 0 0
0 0 0 0 0 0 0 0 0 0 0 0 0 1 0 3 0 0 0 0 0 0 0 0 0 0 0 0 0 0 0 0 0 0 0 0 0 0 0 0 0 0 0 0 0
0 0 0 0 0 0 0 0 0 0 0 0 0 0 0 0 2 0 0 0 0 0 0 0 0 0 0 0 0 0 0 0 0 0 0 0 0 0 0 0 0 0 0 0 0
0 0 0 0 0 0 0 0 0 0 0 0 0 0 0 0 2 0 0 0 0 0 0 0 0 0 0 2 0 0 0 0 0 0 0 0 0 0 0 0 0 0 0 0 0
0 0 0 0 0 0 0 0 0 0 0 0 0 0 0 1 0 1 0 3 5 0 0 0 0 0 0 0 0 0 0 0 0 0 0 0 0 0 0 0 0 0 0 0 0
0 0 0 0 0 0 0 0 0 0 0 0 0 0 0 0 0 0 0 1 8 5 0 3 1 0 0 0 0 0 0 0 0 0 0 0 0 0 0 0 0 0 0 0 0
0 0 0 0 0 0 0 0 0 0 0 0 0 0 0 0 0 0 0 0 0 0 0 0 0 0 0 0 0 0 0 0 0 0 0 0 0 0 0 0 0 0 0 0 0
0 0 0 0 0 0 0 0 0 0 0 0 0 0 0 0 0 0 0 0 0 0 0 0 0 0 0 0 0 0 0 0 0 0 0 0 0 0 0 0 0 0 0 0 0
0 0 0 0 0 0 0 0 0 0 0 0 0 0 0 0 0 0 0 0 0 0 0 0 0 0 0 0 0 0 0 0 0 0 0 0 0 0 0 0 0 0 0 0 0
CIN
0 0 -1 0 -2 -1 -1 0 0 0 0 -1 -2 -1 0 0 0 0 0 0 -3 -1 -6 -12 0 -10 -45 -33 -34 -4 0 0 -2 0 0 0 0 0 0 -51 -77 -105 -125 -123 -182
-1 0 0 0 -2 -1 0 0 0 0 -1 -1 -1 0 0 0 0 0 0 -7 -5 -2 -9 -9 0 -39 -15 -9 -21 -7 0 0 0 -6 0 -21 -5 0 -32 -13 -51 -61 -77 -88 -80
0 -1 -1 0 -1 0 -1 0 0 -1 -2 -1 0 0 0 0 0 0 -2 -8 -5 -1 -14 -1 -6 0 -2 -2 -7 0 0 0 -16 0 0 0 0 -59 -16 -27 -47 -60 -36 -54 -47
-1 -1 -2 -1 0 0 -1 0 0 0 -1 0 0 0 0 0 0 0 0 0 0 -3 0 -5 -5 -1 0 -1 -5 -1 -2 0 -3 -1 -8 -14 0 -21 -6 -48 -188 -73 -50 -63 -62
-1 -1 0 -1 -1 0 -1 0 -4 0 0 0 0 0 0 0 0 0 0 0 0 0 0 -1 0 -1 -2 -1 -26 -3 0 -12 -3 -2 -9 0 -17 -1 0 0 -135 -39 -37 -44 -46
-1 -1 0 -2 -3 -2 -2 -1 -3 0 0 0 0 0 0 0 0 0 0 0 0 0 0 -12 -19 -5 -3 0 -10 -3 -5 -17 -6 -1 -3 0 -11 -16 -8 0 -163 -40 -25 -33 -33
-1 -2 -1 -1 -1 -2 -3 -1 -1 0 0 0 0 0 0 0 0 0 0 0 0 0 0 -5 -16 -3 0 0 0 -2 -6 -26 -21 -9 -3 0 -1 -2 0 0 0 -1 -51 -24 -28
-1 -1 -3 -2 -1 -3 -3 -1 0 0 0 0 0 0 0 0 0 0 0 -3 -11 -12 0 -11 0 -6 0 0 -6 -1 -15 -6 -13 -8 -10 -1 0 0 0 0 0 0 0 -42 -31
0 -2 -2 -2 -2 -2 -2 0 0 0 0 0 0 0 0 0 0 0 0 -1 0 -16 -10 -7 -14 -6 -1 0 -2 -7 -7 -9 -19 -4 -35 -1 0 0 0 0 0 0 0 0 -49
-1 -1 -2 -2 -3 -2 0 0 0 0 0 0 0 0 0 0 0 0 0 0 0 0 -22 -4 -4 -5 -3 0 0 0 -10 -24 -27 -2 -6 -5 0 -1 0 0 0 0 0 0 0
0 0 -2 -1 -1 -1 0 0 0 0 0 0 0 0 0 0 0 -10 0 0 0 -4 0 0 0 0 -1 -8 0 0 -20 0 -12 -35 -2 -11 0 -1 0 0 0 0 0 0 0
0 -1 -2 -2 -1 0 0 0 0 0 0 0 0 0 0 0 0 0 -2 -4 -3 -25 0 0 0 0 0 -4 0 0 0 -46 0 0 -10 -9 -4 -23 -15 -3 -1 0 0 0 0
-1 -1 -2 -1 0 0 0 0 0 0 0 0 0 0 0 0 0 0 -3 -4 0 0 0 0 0 0 0 -1 0 0 0 0 0 0 0 -7 -5 -12 -39 -2 -8 0 0 0 0
0 -1 -1 0 0 0 0 0 0 0 0 0 -3 0 0 0 0 0 -7 -3 -1 0 0 0 0 0 0 0 0 0 0 0 0 0 -4 0 0 0 0 0 0 -3 -3 0 0
0 -1 0 0 0 0 0 0 0 0 0 0 0 0 0 0 0 -6 0 0 0 0 0 0 0 0 0 -1 0 0 0 0 0 0 -12 -4 0 0 0 0 0 0 0 0 0
0 -1 0 0 0 0 0 0 0 0 0 0 0 0 0 0 0 0 0 0 0 0 0 0 0 0 -1 -2 0 0 -1 0 -1 0 0 0 0 0 0 0 0 0 0 0 0
0 -1 0 0 0 0 0 0 0 0 0 0 0 0 0 0 0 -1 0 0 0 0 0 0 0 -34 -8 -3 0 0 -4 -4 -2 -2 0 0 0 0 0 0 0 0 0 0 0
0 0 0 0 0 0 0 0 0 0 0 0 0 -15 0 0 0 0 0 0 0 0 0 0 -40 -28 0 0 0 0 0 0 -2 0 0 0 0 0 0 0 0 0 0 0 0
0 0 0 0 0 0 0 0 0 0 0 0 0 0 -1 0 0 0 0 0 0 0 0 -1 0 -1 0 0 0 0 0 0 0 0 0 0 0 0 0 0 0 0 0 0 0
0 0 0 0 0 0 0 0 0 0 0 0 0 -1 0 0 0 0 0 0 0 0 0 -2 0 0 0 0 0 0 0 0 0 0 0 0 0 0 0 0 0 0 0 0 0
0 0 0 0 0 0 0 0 0 0 0 0 0 -2 0 0 0 0 0 0 0 0 0 0 0 0 0 0 0 0 0 0 0 0 0 0 0 0 0 0 0 0 0 0 0
0 0 0 0 0 0 0 0 0 0 0 0 0 -1 0 -1 -1 0 0 0 0 0 0 0 0 0 0 -2 0 0 0 0 0 0 0 0 0 0 0 0 0 0 0 0 0
0 0 0 0 0 0 0 0 0 0 0 0 0 0 0 0 -1 -1 0 -12 -14 0 0 0 0 0 0 -1 0 0 0 0 0 0 0 0 0 0 0 0 0 0 0 0 0
0 0 0 0 0 0 0 0 0 0 0 0 0 0 0 0 0 0 0 -11 -10 -4 -2 -2 0 0 0 0 0 0 0 0 0 0 0 0 0 0 0 0 0 0 0 0 0
0 0 0 0 0 0 0 0 0 0 0 0 0 0 0 0 0 0 0 0 0 -4 0 -3 0 0 0 0 0 0 0 0 0 0 0 -1 0 0 0 0 0 0 0 0 0
0 0 0 0 0 0 0 0 0 0 0 0 0 0 0 0 0 0 0 0 -1 0 0 0 0 0 0 0 0 0 0 0 0 0 0 0 0 0 0 0 0 0 0 0 0
0 0 0 0 0 0 0 0 0 0 0 0 0 0 0 0 0 0 0 0 0 0 0 -2 0 0 0 0 0 0 -2 0 0 0 0 0 0 0 0 0 0 0 0 0 0
Wind_Speed
26 25 25 25 26 27 25 25 24 26 26 24 22 21 21 20 20 18 16 12 15 18 19 25 27 27 32 33 33 36 48 67 55 48 47 40 40 34 32 33 28 28 28 25 20
25 25 26 26 26 25 25 25 25 26 25 25 23 21 19 19 19 17 12 13 15 18 20 23 23 20 26 32 37 40 52 57 39 38 38 33 39 38 31 32 31 26 21 21 23
26 25 25 25 26 25 24 24 25 26 26 25 22 20 19 18 20 17 17 15 16 17 17 17 9 21 29 32 38 38 54 47 44 49 31 32 35 34 32 36 35 28 24 24 24
26 25 25 25 25 25 25 24 25 25 25 25 22 20 18 18 27 15 16 18 18 16 15 16 8 8 21 34 41 42 43 50 34 35 38 31 29 33 29 27 28 23 23 25 25
26 26 24 25 24 24 25 25 24 25 23 23 21 20 19 20 16 14 19 21 19 17 17 16 9 8 27 29 39 42 44 42 42 31 28 29 31 34 38 24 24 25 23 26 29
26 25 25 25 24 24 24 24 23 23 21 22 22 19 19 22 14 15 18 19 21 19 17 17 14 22 26 30 34 33 38 47 41 34 32 30 33 29 31 25 23 26 24 25 26
26 24 25 25 24 24 23 23 23 21 20 20 20 19 19 16 14 13 16 16 17 19 17 17 20 21 22 29 30 34 38 44 43 38 30 27 40 39 28 26 23 25 27 27 26
25 25 25 25 24 23 23 22 22 19 18 18 18 18 19 13 12 12 14 15 14 16 18 17 18 19 23 24 28 36 35 47 37 35 31 32 36 37 29 28 26 26 24 28 30
25 24 25 24 23 22 21 21 21 18 16 17 18 19 20 14 14 13 15 15 16 14 18 16 18 22 24 25 27 31 45 46 44 39 34 37 28 33 35 31 32 29 27 28 30
24 24 25 24 22 22 21 20 18 20 18 16 16 20 17 19 15 14 15 14 14 13 15 18 20 22 22 24 31 41 39 43 45 43 35 38 37 28 28 36 30 31 30 30 33
24 24 24 24 22 22 22 21 24 23 19 19 21 19 20 16 13 14 13 14 12 13 16 19 21 24 23 23 26 33 37 40 35 34 37 38 39 33 28 33 34 33 32 32 34
23 23 23 21 21 20 20 22 22 19 23 18 15 16 18 17 18 16 14 16 14 13 16 20 22 22 24 18 23 28 39 35 32 31 35 37 33 28 27 32 38 36 33 33 35
20 21 22 20 19 19 19 21 18 17 21 22 21 21 22 19 17 16 14 16 15 11 12 22 24 24 22 18 21 26 40 36 34 29 28 32 30 34 30 35 29 31 37 38 33
19 19 19 19 19 19 20 19 17 17 23 24 23 22 23 20 19 16 15 16 16 14 18 20 20 25 23 17 18 24 29 32 36 33 37 32 39 36 35 39 36 32 41 41 38
18 16 14 14 18 20 19 17 17 18 30 22 22 19 22 25 19 20 16 15 14 12 15 18 19 22 20 20 15 19 22 30 34 33 28 29 35 39 44 42 40 43 42 37 31
13 12 12 15 16 18 18 18 18 23 29 23 22 24 25 25 20 17 18 14 12 13 14 18 21 22 22 20 14 16 19 17 23 28 38 37 37 39 39 49 47 40 37 38 27
11 9 12 16 16 17 18 18 21 27 20 23 25 24 26 25 24 20 19 16 20 20 16 18 20 15 18 18 15 16 19 24 30 34 38 31 33 35 33 39 44 41 38 36 34
9 8 13 16 16 16 18 19 24 20 21 20 23 24 27 25 24 22 20 21 11 16 11 9 12 16 17 17 17 17 19 20 28 31 28 25 33 28 26 26 30 31 33 30 33
4 11 14 14 15 17 18 22 21 19 19 21 23 27 27 25 23 23 23 21 11 12 14 12 9 9 8 12 18 20 19 15 15 17 22 27 26 24 20 23 26 27 31 32 32
5 9 14 14 15 17 19 21 20 19 20 21 26 26 29 25 24 22 23 20 18 14 12 10 15 14 15 14 11 16 15 20 13 19 24 26 25 23 19 16 15 19 27 31 33
8 11 12 14 16 19 21 20 19 18 20 22 24 24 25 24 22 22 21 21 16 11 10 12 18 20 17 18 16 16 18 17 17 16 21 24 25 18 22 16 13 15 15 18 21
9 12 15 13 17 19 20 19 19 19 20 22 23 23 23 22 24 22 21 21 9 12 13 14 16 17 18 17 21 18 16 16 16 17 17 19 21 16 14 12 14 16 16 17 17
5 12 16 16 16 18 18 20 20 20 20 21 22 21 20 21 23 23 21 18 11 12 13 15 15 17 14 16 20 21 18 15 12 15 17 19 19 15 15 13 14 16 18 18 17
10 10 15 15 14 16 19 19 20 20 21 22 22 22 22 23 22 22 21 18 13 11 13 15 14 16 18 17 18 22 23 18 15 16 16 19 17 15 15 16 15 16 15 16 18
15 13 10 11 12 16 18 19 20 20 20 21 23 23 23 23 22 21 19 17 12 10 13 13 17 14 15 17 17 17 21 26 21 12 15 17 15 18 16 17 18 18 16 16 17
12 10 12 11 14 16 18 18 19 20 21 21 23 22 22 22 21 20 19 19 17 14 13 13 17 15 15 13 15 17 17 12 15 15 11 16 21 17 15 14 16 17 17 20 19
15 15 10 8 12 16 17 19 20 22 21 21 22 22 22 21 19 18 16 15 16 9 14 14 15 16 15 15 15 16 18 19 13 14 14 20 19 16 19 19 17 16 17 20 21
Wind_Direction
345 348 349 351 353 352 355 357 354 355 354 354 353 353 354 355 353 355 350 354 348 336 331 313 305 287 272 253 242 240 233 226 230 227 227 230 229 224 232 236 236 234 232 220 205
347 347 348 350 353 356 356 358 357 356 356 355 356 357 358 0 360 359 360 352 345 338 332 322 311 299 269 248 234 232 228 224 236 231 231 234 227 222 228 227 229 229 221 208 205
344 347 350 351 352 356 360 360 359 358 359 359 1 2 5 9 2 10 16 5 350 340 339 342 341 284 262 244 229 236 227 229 232 226 242 237 227 228 228 226 228 220 208 209 205
344 348 350 350 354 356 358 0 0 1 3 4 8 10 12 13 356 23 12 359 349 351 348 343 335 284 267 241 227 235 230 225 240 234 234 230 231 215 224 231 234 215 208 217 211
343 346 351 352 355 358 359 360 2 3 6 8 11 13 15 7 11 23 7 353 357 353 346 341 331 280 257 246 232 232 228 227 228 243 232 231 223 220 221 244 233 225 214 215 216
342 346 349 352 357 358 359 0 3 5 9 11 13 18 16 7 32 30 14 4 354 354 354 344 322 269 253 240 233 234 231 226 228 230 232 229 220 218 218 232 228 225 221 222 222
342 348 349 352 356 359 2 4 4 6 10 12 16 18 16 15 40 40 20 15 13 11 358 337 291 260 248 243 239 232 226 224 227 226 232 227 225 218 226 223 226 227 231 228 227
341 346 350 353 357 0 2 5 5 9 14 16 22 26 20 44 47 41 27 14 23 16 7 328 281 257 246 254 235 223 227 218 224 221 222 223 223 218 226 221 227 231 231 234 233
338 345 348 354 357 2 6 7 9 15 21 24 30 29 22 52 44 43 27 23 18 22 8 301 264 241 242 242 227 222 217 216 217 217 222 220 226 228 228 222 232 233 234 238 236
335 343 347 353 1 5 8 10 19 24 28 37 37 27 36 34 46 37 34 37 31 27 9 286 249 242 239 237 223 217 217 218 216 216 220 221 225 238 216 216 221 229 235 237 237
330 339 346 353 3 9 14 20 16 19 30 36 33 35 32 38 45 42 51 41 43 33 0 278 254 245 236 239 237 230 219 218 223 225 222 221 224 237 226 226 231 232 234 236 236
328 337 343 357 7 16 19 19 20 30 32 42 37 34 31 43 33 41 61 40 44 36 353 273 250 239 230 242 237 228 214 216 225 225 225 223 228 230 227 230 234 236 237 241 237
329 337 345 360 11 19 22 24 34 50 38 41 44 40 34 38 39 43 57 48 44 48 15 255 244 239 230 236 235 228 215 216 216 222 229 219 227 226 228 225 231 231 231 240 237
328 340 351 6 15 20 20 31 46 57 33 35 37 41 36 44 45 49 63 55 55 61 268 255 243 226 229 229 236 222 218 216 218 220 220 228 222 226 228 226 229 238 221 225 226
321 348 9 26 17 21 26 46 55 53 18 33 37 46 39 36 44 51 65 63 66 83 221 239 226 213 218 227 237 227 220 220 219 222 225 228 227 227 226 230 233 231 227 234 234
338 0 21 26 27 32 44 52 55 33 24 37 42 35 34 38 49 56 61 96 85 100 183 221 218 215 210 207 232 234 216 212 222 227 230 233 233 234 232 228 233 234 236 233 242
341 13 28 16 32 43 50 50 37 29 45 39 37 39 39 40 46 57 68 76 74 116 155 182 208 215 210 213 232 226 205 212 218 224 228 230 232 237 245 244 238 238 238 241 242
335 26 6 18 43 48 46 43 33 45 48 49 44 45 41 46 52 61 73 79 165 154 183 190 192 222 226 231 231 228 220 223 221 217 226 224 230 242 253 250 244 246 243 244 244
12 338 2 36 46 47 45 38 44 56 55 50 49 44 45 51 58 67 80 87 176 188 175 191 207 222 260 257 233 229 223 242 226 229 227 227 241 253 262 252 248 242 241 245 248
322 346 359 51 56 46 44 47 56 64 59 60 49 50 45 55 62 74 82 87 107 199 201 208 185 205 216 228 250 232 231 221 239 224 225 232 238 243 245 252 257 251 249 255 254
295 334 355 47 59 39 37 51 64 73 69 63 56 55 57 60 68 78 87 91 123 210 222 214 184 176 215 221 229 231 234 239 248 247 238 233 243 271 259 272 274 274 273 269 262
290 314 284 40 3 30 47 56 73 74 78 70 68 67 64 69 70 80 91 96 171 217 208 204 193 189 196 209 214 212 241 245 252 254 259 256 252 282 287 283 285 281 279 275 270
304 303 255 255 354 29 59 55 70 82 80 73 69 72 74 76 75 86 101 114 163 229 206 205 200 188 207 214 210 226 232 247 272 263 260 254 254 274 277 292 299 288 277 271 266
275 312 275 284 341 54 62 65 80 92 84 78 74 78 78 78 83 89 101 115 157 234 228 213 219 198 189 206 214 216 222 248 259 263 266 266 267 279 285 277 282 291 285 276 267
254 283 329 340 26 59 60 69 89 92 91 84 76 78 80 79 86 91 97 116 202 233 229 253 207 229 220 223 231 254 238 214 232 264 275 266 265 263 269 265 274 281 281 281 274
260 299 290 311 56 58 71 82 97 100 96 87 82 84 87 84 88 91 99 102 118 218 215 228 213 238 238 277 278 259 266 273 272 264 277 251 236 257 279 287 290 283 285 272 273
253 247 286 307 47 60 93 90 107 105 98 93 91 89 88 92 94 97 110 124 137 116 241 253 247 251 252 265 287 280 260 254 269 275 276 256 263 289 285 281 291 296 291 278 273